SBI7520 ZMUB-VVNB

Flight info

Callsign SBI7520
Flight time 4h 31m
Altitude 36100
Route ZMUB N0448F361 SER1B SER A573 MORIT B330 DAGDI W234 NIXID B330 QNX V86 BSE A599 ADBAG R471 MEOVA W22 DILEN DILE3J NB362 NB601 NB602 RW11L VVNB
Aircraft B738/M-SDGIWZ/S

Departure

Time 2026-05-08 22:30
Airport Buyant-Ukhaa International Airport (ZMUB)

Arrival

Time 2026-05-09 03:02
Airport Noi Bai International Airport (VVNB)
Time Latitude Longitude Altitude Speed Heading
2026-05-08 22:10 47.85254 106.76166 4373 ft 0 kts 52°
2026-05-08 22:23 47.85253 106.76164 4373 ft 1 kts 52°
2026-05-08 22:23 47.85243 106.76145 4373 ft 3 kts 53°
2026-05-08 22:23 47.85222 106.76112 4373 ft 5 kts 45°
2026-05-08 22:23 47.85191 106.76063 4373 ft 7 kts 47°
2026-05-08 22:24 47.85150 106.75996 4373 ft 9 kts 50°
2026-05-08 22:24 47.85159 106.75934 4373 ft 4 kts 135°
2026-05-08 22:24 47.85169 106.75919 4373 ft 0 kts 138°
2026-05-08 22:25 47.85159 106.75932 4373 ft 5 kts 140°
2026-05-08 22:25 47.85115 106.75987 4373 ft 11 kts 139°
2026-05-08 22:25 47.85039 106.76087 4373 ft 17 kts 138°
2026-05-08 22:26 47.84936 106.76228 4373 ft 22 kts 137°
2026-05-08 22:26 47.84804 106.76406 4373 ft 28 kts 138°
2026-05-08 22:26 47.84652 106.76604 4373 ft 27 kts 140°
2026-05-08 22:26 47.84514 106.76781 4373 ft 25 kts 139°
2026-05-08 22:27 47.84391 106.76946 4373 ft 23 kts 138°
2026-05-08 22:27 47.84267 106.77111 4373 ft 24 kts 139°
2026-05-08 22:27 47.84138 106.77281 4373 ft 24 kts 138°
2026-05-08 22:27 47.84009 106.77455 4373 ft 25 kts 138°
2026-05-08 22:28 47.83873 106.77637 4373 ft 26 kts 138°
2026-05-08 22:28 47.83733 106.77822 4373 ft 27 kts 139°
2026-05-08 22:28 47.83595 106.78006 4373 ft 25 kts 137°
2026-05-08 22:28 47.83461 106.78146 4373 ft 22 kts 168°
2026-05-08 22:29 47.83331 106.78152 4373 ft 17 kts 180°
2026-05-08 22:29 47.83249 106.78090 4373 ft 12 kts 270°
2026-05-08 22:29 47.83315 106.77969 4373 ft 32 kts 319°
2026-05-08 22:29 47.83663 106.77507 4373 ft 100 kts 318°
2026-05-08 22:30 47.84331 106.76619 4373 ft 156 kts 318°
2026-05-08 22:30 47.85242 106.75410 4512 ft 185 kts 318°
2026-05-08 22:30 47.86212 106.74115 4971 ft 194 kts 319°
2026-05-08 22:30 47.87201 106.72799 5671 ft 189 kts 319°
2026-05-08 22:31 47.88213 106.71453 5942 ft 209 kts 319°
2026-05-08 22:31 47.89360 106.69933 6163 ft 230 kts 319°
2026-05-08 22:31 47.90595 106.68296 6610 ft 240 kts 319°
2026-05-08 22:31 47.91842 106.66634 7097 ft 249 kts 317°
2026-05-08 22:32 47.92844 106.64477 7687 ft 259 kts 289°
2026-05-08 22:32 47.92944 106.61800 8196 ft 273 kts 256°
2026-05-08 22:32 47.91981 106.59347 8823 ft 283 kts 223°
2026-05-08 22:32 47.90241 106.57999 9427 ft 291 kts 191°
2026-05-08 22:33 47.88238 106.58200 10033 ft 297 kts 159°
2026-05-08 22:33 47.86493 106.59915 10357 ft 311 kts 131°
2026-05-08 22:33 47.85171 106.62558 10586 ft 329 kts 125°
2026-05-08 22:33 47.83544 106.65142 10647 ft 354 kts 141°
2026-05-08 22:34 47.81495 106.67234 11030 ft 366 kts 148°
2026-05-08 22:34 47.79287 106.69236 11455 ft 375 kts 149°
2026-05-08 22:34 47.77036 106.71226 12063 ft 378 kts 149°
2026-05-08 22:34 47.74768 106.73193 12534 ft 384 kts 150°
2026-05-08 22:35 47.72431 106.75192 13088 ft 388 kts 150°
2026-05-08 22:35 47.70084 106.77184 13572 ft 393 kts 151°
2026-05-08 22:35 47.67605 106.78818 14021 ft 397 kts 163°
2026-05-08 22:35 47.64875 106.79585 14510 ft 399 kts 179°
2026-05-08 22:36 47.62156 106.79222 14971 ft 398 kts 196°
2026-05-08 22:36 47.59536 106.77888 15466 ft 396 kts 208°
2026-05-08 22:36 47.57078 106.76013 15902 ft 398 kts 213°
2026-05-08 22:36 47.54677 106.74069 16338 ft 401 kts 212°
2026-05-08 22:37 47.52189 106.72101 16783 ft 404 kts 212°
2026-05-08 22:37 47.49735 106.70169 17211 ft 407 kts 213°
2026-05-08 22:37 47.47208 106.68171 17633 ft 409 kts 213°
2026-05-08 22:37 47.44704 106.66189 18049 ft 411 kts 213°
2026-05-08 22:38 47.42184 106.64198 18442 ft 413 kts 213°
2026-05-08 22:38 47.39668 106.62212 18835 ft 415 kts 213°
2026-05-08 22:38 47.37117 106.60200 19218 ft 417 kts 214°
2026-05-08 22:38 47.34553 106.58179 19590 ft 419 kts 214°
2026-05-08 22:39 47.31981 106.56154 19950 ft 421 kts 214°
2026-05-08 22:39 47.29420 106.54139 20293 ft 423 kts 214°
2026-05-08 22:39 47.26842 106.52114 20623 ft 425 kts 214°
2026-05-08 22:39 47.24218 106.50055 20986 ft 426 kts 214°
2026-05-08 22:40 47.21626 106.48023 21288 ft 428 kts 215°
2026-05-08 22:40 47.18977 106.45950 21601 ft 429 kts 215°
2026-05-08 22:40 47.16375 106.43915 21921 ft 430 kts 215°
2026-05-08 22:40 47.13742 106.41858 22238 ft 431 kts 215°
2026-05-08 22:41 47.11066 106.39769 22504 ft 433 kts 215°
2026-05-08 22:41 47.08437 106.37721 22807 ft 434 kts 216°
2026-05-08 22:41 47.05769 106.35644 23093 ft 435 kts 216°
2026-05-08 22:41 47.03083 106.33554 23323 ft 437 kts 215°
2026-05-08 22:42 47.00398 106.31468 23578 ft 439 kts 215°
2026-05-08 22:42 46.97706 106.29380 23819 ft 441 kts 215°
2026-05-08 22:42 46.94982 106.27269 24044 ft 443 kts 214°
2026-05-08 22:42 46.92281 106.25178 24276 ft 445 kts 214°
2026-05-08 22:43 46.89533 106.23054 24454 ft 447 kts 214°
2026-05-08 22:43 46.86785 106.20932 24740 ft 447 kts 214°
2026-05-08 22:43 46.84062 106.18834 24982 ft 447 kts 214°
2026-05-08 22:43 46.81305 106.16709 25207 ft 448 kts 214°
2026-05-08 22:44 46.78548 106.14589 25446 ft 449 kts 215°
2026-05-08 22:44 46.75819 106.12490 25626 ft 450 kts 215°
2026-05-08 22:44 46.73051 106.10366 25888 ft 449 kts 215°
2026-05-08 22:44 46.70277 106.08240 26080 ft 450 kts 215°
2026-05-08 22:45 46.67509 106.06119 26260 ft 451 kts 215°
2026-05-08 22:45 46.64742 106.04002 26469 ft 452 kts 215°
2026-05-08 22:45 46.61993 106.01902 26638 ft 452 kts 215°
2026-05-08 22:45 46.59209 105.99777 26828 ft 453 kts 215°
2026-05-08 22:46 46.56414 105.97646 27004 ft 453 kts 215°
2026-05-08 22:46 46.53645 105.95539 27212 ft 453 kts 215°
2026-05-08 22:46 46.50863 105.93422 27322 ft 455 kts 215°
2026-05-08 22:46 46.48033 105.91272 27484 ft 455 kts 216°
2026-05-08 22:47 46.45244 105.89157 27717 ft 454 kts 216°
2026-05-08 22:47 46.42457 105.87045 27829 ft 455 kts 216°
2026-05-08 22:47 46.39679 105.84943 28015 ft 455 kts 216°
2026-05-08 22:48 46.34078 105.80711 28255 ft 456 kts 216°
2026-05-08 22:48 46.31286 105.78606 28426 ft 456 kts 216°
2026-05-08 22:48 46.28480 105.76497 28727 ft 452 kts 216°
2026-05-08 22:48 46.25716 105.74419 28911 ft 451 kts 216°
2026-05-08 22:49 46.22949 105.72338 29084 ft 450 kts 216°
2026-05-08 22:49 46.17439 105.68207 29526 ft 446 kts 216°
2026-05-08 22:49 46.14685 105.66142 29686 ft 445 kts 216°
2026-05-08 22:50 46.11961 105.64105 29950 ft 442 kts 216°
2026-05-08 22:50 46.09242 105.62073 30047 ft 443 kts 216°
2026-05-08 22:50 46.06519 105.60040 30235 ft 441 kts 216°
2026-05-08 22:50 46.03833 105.58040 30558 ft 436 kts 216°
2026-05-08 22:51 46.01164 105.56054 30691 ft 436 kts 217°
2026-05-08 22:51 45.98456 105.54034 30797 ft 436 kts 217°
2026-05-08 22:51 45.95777 105.52045 31016 ft 434 kts 217°
2026-05-08 22:51 45.93131 105.50081 31169 ft 433 kts 217°
2026-05-08 22:52 45.90450 105.48092 31299 ft 432 kts 217°
2026-05-08 22:52 45.87781 105.46115 31447 ft 431 kts 217°
2026-05-08 22:52 45.82510 105.42218 31757 ft 428 kts 217°
2026-05-08 22:53 45.79860 105.40264 31914 ft 426 kts 217°
2026-05-08 22:53 45.77247 105.38335 31978 ft 427 kts 217°
2026-05-08 22:53 45.71984 105.34461 32282 ft 423 kts 216°
2026-05-08 22:54 45.69382 105.32550 32411 ft 423 kts 216°
2026-05-08 22:54 45.66782 105.30637 32476 ft 424 kts 216°
2026-05-08 22:54 45.64147 105.28704 32632 ft 422 kts 216°
2026-05-08 22:54 45.61565 105.26813 32755 ft 422 kts 216°
2026-05-08 22:55 45.58963 105.24908 32865 ft 421 kts 216°
2026-05-08 22:55 45.56364 105.23010 33109 ft 417 kts 216°
2026-05-08 22:55 45.51211 105.19245 33278 ft 417 kts 216°
2026-05-08 22:56 45.48642 105.17374 33505 ft 414 kts 216°
2026-05-08 22:56 45.46083 105.15512 33583 ft 414 kts 217°
2026-05-08 22:56 45.40982 105.11794 33750 ft 413 kts 217°
2026-05-08 22:57 45.38459 105.09952 33870 ft 412 kts 217°
2026-05-08 22:57 45.35907 105.08092 33967 ft 412 kts 216°
2026-05-08 22:57 45.30830 105.04428 34116 ft 412 kts 216°
2026-05-08 22:58 45.25727 105.00762 34247 ft 412 kts 216°
2026-05-08 22:58 45.20625 104.97089 34393 ft 411 kts 216°
2026-05-08 22:59 45.15570 104.93450 34534 ft 411 kts 216°
2026-05-08 22:59 45.10497 104.89789 34674 ft 410 kts 216°
2026-05-08 23:00 45.05412 104.86121 34847 ft 409 kts 216°
2026-05-08 23:00 45.02918 104.84336 34950 ft 408 kts 215°
2026-05-08 23:00 45.00390 104.82533 35023 ft 407 kts 215°
2026-05-08 23:01 44.95364 104.78944 35188 ft 405 kts 215°
2026-05-08 23:01 44.90354 104.75362 35324 ft 404 kts 215°
2026-05-08 23:02 44.85379 104.71800 35457 ft 403 kts 215°
2026-05-08 23:02 44.80402 104.68242 35601 ft 401 kts 215°
2026-05-08 23:03 44.75412 104.64740 35721 ft 401 kts 214°
2026-05-08 23:03 44.70451 104.61266 35848 ft 399 kts 215°
2026-05-08 23:04 44.65565 104.57780 35972 ft 397 kts 215°
2026-05-08 23:04 44.60636 104.54280 36123 ft 396 kts 215°
2026-05-08 23:05 44.55721 104.50821 36119 ft 397 kts 215°
2026-05-08 23:05 44.50785 104.47391 36120 ft 399 kts 215°
2026-05-08 23:06 44.45823 104.43909 36123 ft 400 kts 215°
2026-05-08 23:06 44.40862 104.40408 36120 ft 401 kts 215°
2026-05-08 23:07 44.35899 104.36937 36122 ft 402 kts 215°
2026-05-08 23:07 44.30868 104.33450 36118 ft 404 kts 214°
2026-05-08 23:08 44.25829 104.29987 36121 ft 406 kts 214°
2026-05-08 23:08 44.20772 104.26497 36119 ft 407 kts 214°
2026-05-08 23:09 44.15712 104.22978 36117 ft 407 kts 214°
2026-05-08 23:09 44.10694 104.19475 36117 ft 406 kts 214°
2026-05-08 23:10 44.05650 104.15975 36120 ft 406 kts 214°
2026-05-08 23:10 44.00601 104.12516 36121 ft 406 kts 214°
2026-05-08 23:11 43.95526 104.09061 36120 ft 406 kts 214°
2026-05-08 23:11 43.90473 104.05598 36121 ft 407 kts 214°
2026-05-08 23:12 43.85422 104.02104 36121 ft 407 kts 214°
2026-05-08 23:12 43.80389 103.98665 36120 ft 406 kts 214°
2026-05-08 23:13 43.75332 103.95258 36120 ft 406 kts 214°
2026-05-08 23:13 43.70278 103.91827 36120 ft 407 kts 214°
2026-05-08 23:14 43.65212 103.88390 36119 ft 406 kts 214°
2026-05-08 23:14 43.60184 103.84939 36119 ft 406 kts 214°
2026-05-08 23:15 43.55105 103.81491 36120 ft 407 kts 214°
2026-05-08 23:15 43.50064 103.78095 36118 ft 406 kts 214°
2026-05-08 23:16 43.45011 103.74677 36091 ft 405 kts 214°
2026-05-08 23:16 43.39953 103.71252 36093 ft 406 kts 214°
2026-05-08 23:17 43.34913 103.67849 36095 ft 406 kts 214°
2026-05-08 23:17 43.29878 103.64452 36092 ft 406 kts 214°
2026-05-08 23:18 43.24804 103.61098 36092 ft 407 kts 214°
2026-05-08 23:18 43.19698 103.57729 36093 ft 406 kts 214°
2026-05-08 23:19 43.14657 103.54381 36093 ft 406 kts 214°
2026-05-08 23:19 43.09610 103.50979 36093 ft 406 kts 214°
2026-05-08 23:20 43.04516 103.47600 36095 ft 406 kts 214°
2026-05-08 23:20 42.99452 103.44263 36093 ft 406 kts 214°
2026-05-08 23:21 42.94418 103.40923 36092 ft 403 kts 214°
2026-05-08 23:21 42.89420 103.37618 36093 ft 401 kts 214°
2026-05-08 23:22 42.84423 103.34322 36111 ft 400 kts 213°
2026-05-08 23:22 42.79411 103.31020 36161 ft 401 kts 213°
2026-05-08 23:23 42.74392 103.27721 36232 ft 401 kts 213°
2026-05-08 23:23 42.69397 103.24446 36312 ft 401 kts 213°
2026-05-08 23:24 42.64387 103.21166 36352 ft 402 kts 213°
2026-05-08 23:24 42.59364 103.17883 36363 ft 402 kts 213°
2026-05-08 23:25 42.54332 103.14601 36363 ft 402 kts 213°
2026-05-08 23:25 42.49321 103.11339 36363 ft 402 kts 213°
2026-05-08 23:26 42.44281 103.08063 36363 ft 403 kts 213°
2026-05-08 23:26 42.39254 103.04800 36363 ft 403 kts 213°
2026-05-08 23:27 42.34199 103.01528 36362 ft 403 kts 212°
2026-05-08 23:27 42.29143 102.98259 36363 ft 404 kts 212°
2026-05-08 23:28 42.24099 102.95004 36364 ft 405 kts 212°
2026-05-08 23:28 42.19027 102.91737 36363 ft 405 kts 212°
2026-05-08 23:29 42.13991 102.88500 36363 ft 404 kts 212°
2026-05-08 23:29 42.08923 102.85247 36363 ft 404 kts 212°
2026-05-08 23:30 42.03473 102.83048 36364 ft 424 kts 192°
2026-05-08 23:30 42.00476 102.83173 36365 ft 439 kts 180°
2026-05-08 23:30 41.97489 102.84073 36368 ft 449 kts 172°
2026-05-08 23:31 41.91526 102.86524 36360 ft 450 kts 172°
2026-05-08 23:31 41.85531 102.88854 36363 ft 449 kts 172°
2026-05-08 23:32 41.79573 102.91208 36363 ft 450 kts 172°
2026-05-08 23:32 41.73586 102.93581 36363 ft 449 kts 172°
2026-05-08 23:33 41.67636 102.95938 36363 ft 449 kts 172°
2026-05-08 23:33 41.61646 102.98110 36363 ft 443 kts 178°
2026-05-08 23:34 41.55654 102.98879 36365 ft 430 kts 189°
2026-05-08 23:34 41.49706 102.98828 36362 ft 430 kts 188°
2026-05-08 23:35 41.43735 102.98850 36363 ft 430 kts 188°
2026-05-08 23:35 41.37793 102.98820 36363 ft 429 kts 189°
2026-05-08 23:36 41.31839 102.98809 36363 ft 430 kts 188°
2026-05-08 23:36 41.25870 102.98857 36362 ft 430 kts 188°
2026-05-08 23:37 41.19906 102.98884 36363 ft 431 kts 188°
2026-05-08 23:37 41.13936 102.98911 36363 ft 431 kts 188°
2026-05-08 23:38 41.07986 102.98936 36362 ft 430 kts 188°
2026-05-08 23:38 41.02028 102.98961 36361 ft 428 kts 188°
2026-05-08 23:39 40.96106 102.98984 36363 ft 426 kts 188°
2026-05-08 23:39 40.90214 102.99006 36363 ft 425 kts 188°
2026-05-08 23:40 40.84342 102.99026 36363 ft 425 kts 188°
2026-05-08 23:40 40.78442 102.99049 36363 ft 425 kts 188°
2026-05-08 23:41 40.72546 102.99069 36363 ft 426 kts 188°
2026-05-08 23:41 40.66644 102.99092 36363 ft 426 kts 188°
2026-05-08 23:42 40.60737 102.99114 36362 ft 425 kts 188°
2026-05-08 23:42 40.54863 102.99136 36363 ft 425 kts 188°
2026-05-08 23:43 40.48965 102.99158 36362 ft 425 kts 188°
2026-05-08 23:43 40.43074 102.99180 36363 ft 425 kts 188°
2026-05-08 23:44 40.37162 102.99201 36363 ft 425 kts 188°
2026-05-08 23:44 40.31302 102.99223 36363 ft 425 kts 188°
2026-05-08 23:45 40.25383 102.99245 36364 ft 425 kts 188°
2026-05-08 23:45 40.19517 102.99265 36363 ft 426 kts 188°
2026-05-08 23:46 40.13615 102.99287 36363 ft 426 kts 188°
2026-05-08 23:46 40.07700 102.99309 36363 ft 425 kts 188°
2026-05-08 23:47 40.01833 102.99331 36364 ft 425 kts 188°
2026-05-08 23:47 39.95915 102.99352 36363 ft 426 kts 188°
2026-05-08 23:48 39.90048 102.99374 36363 ft 425 kts 188°
2026-05-08 23:48 39.84130 102.99395 36363 ft 425 kts 188°
2026-05-08 23:49 39.78221 102.99416 36364 ft 426 kts 188°
2026-05-08 23:49 39.72321 102.99438 36363 ft 426 kts 188°
2026-05-08 23:50 39.66441 102.99459 36363 ft 425 kts 188°
2026-05-08 23:50 39.60531 102.99480 36362 ft 425 kts 188°
2026-05-08 23:51 39.54655 102.99502 36363 ft 425 kts 188°
2026-05-08 23:51 39.48753 102.99522 36363 ft 425 kts 188°
2026-05-08 23:52 39.42864 102.99540 36363 ft 425 kts 188°
2026-05-08 23:52 39.36941 102.99944 36362 ft 436 kts 179°
2026-05-08 23:53 39.33982 103.00848 36363 ft 447 kts 170°
2026-05-08 23:53 39.31050 103.02348 36366 ft 454 kts 165°
2026-05-08 23:53 39.25334 103.05695 36363 ft 451 kts 165°
2026-05-08 23:54 39.19636 103.08917 36364 ft 452 kts 165°
2026-05-08 23:55 39.11019 103.13850 36363 ft 451 kts 166°
2026-05-08 23:55 39.05331 103.17107 36363 ft 450 kts 166°
2026-05-08 23:56 38.99637 103.20367 36363 ft 450 kts 166°
2026-05-08 23:56 38.93980 103.23603 36363 ft 448 kts 167°
2026-05-08 23:57 38.88275 103.26860 36363 ft 446 kts 167°
2026-05-08 23:57 38.82660 103.30061 36363 ft 446 kts 167°
2026-05-08 23:58 38.76999 103.33281 36363 ft 446 kts 167°
2026-05-08 23:58 38.71323 103.36505 36363 ft 446 kts 167°
2026-05-08 23:59 38.65673 103.39712 36362 ft 445 kts 167°
2026-05-08 23:59 38.60036 103.42902 36364 ft 446 kts 167°
2026-05-09 00:00 38.54399 103.46089 36362 ft 446 kts 167°
2026-05-09 00:00 38.48727 103.49290 36363 ft 446 kts 167°
2026-05-09 00:01 38.43075 103.52475 36363 ft 446 kts 167°
2026-05-09 00:01 38.37420 103.55656 36364 ft 446 kts 167°
2026-05-09 00:02 38.31760 103.58834 36362 ft 446 kts 167°
2026-05-09 00:02 38.26083 103.62015 36364 ft 446 kts 167°
2026-05-09 00:03 38.20463 103.65160 36363 ft 446 kts 168°
2026-05-09 00:03 38.14788 103.68332 36362 ft 445 kts 168°
2026-05-09 00:04 38.09132 103.71484 36363 ft 445 kts 168°
2026-05-09 00:04 38.03500 103.74618 36363 ft 446 kts 168°
2026-05-09 00:05 37.97853 103.77757 36364 ft 445 kts 168°
2026-05-09 00:05 37.92186 103.80901 36362 ft 445 kts 168°
2026-05-09 00:06 37.86523 103.84037 36364 ft 445 kts 168°
2026-05-09 00:06 37.80850 103.87175 36363 ft 446 kts 168°
2026-05-09 00:07 37.75223 103.90282 36363 ft 444 kts 168°
2026-05-09 00:07 37.69584 103.93389 36363 ft 444 kts 168°
2026-05-09 00:08 37.63933 103.96497 36363 ft 444 kts 168°
2026-05-09 00:08 37.58266 103.99608 36363 ft 446 kts 168°
2026-05-09 00:09 37.52595 104.02721 36364 ft 446 kts 168°
2026-05-09 00:09 37.46967 104.05805 36362 ft 444 kts 168°
2026-05-09 00:10 37.41329 104.08885 36362 ft 445 kts 168°
2026-05-09 00:10 37.35663 104.11977 36364 ft 445 kts 168°
2026-05-09 00:11 37.29977 104.15076 36364 ft 445 kts 168°
2026-05-09 00:11 37.24270 104.17580 36362 ft 427 kts 179°
2026-05-09 00:12 37.18513 104.18890 36362 ft 423 kts 181°
2026-05-09 00:12 37.12719 104.20219 36362 ft 425 kts 181°
2026-05-09 00:13 37.06914 104.21510 36388 ft 425 kts 181°
2026-05-09 00:13 37.01091 104.22783 36389 ft 428 kts 181°
2026-05-09 00:14 36.95242 104.24054 36390 ft 431 kts 181°
2026-05-09 00:14 36.89325 104.25336 36391 ft 434 kts 181°
2026-05-09 00:15 36.83385 104.26622 36389 ft 434 kts 181°
2026-05-09 00:15 36.77459 104.27902 36390 ft 432 kts 181°
2026-05-09 00:16 36.71565 104.29169 36390 ft 432 kts 181°
2026-05-09 00:16 36.65667 104.30434 36390 ft 432 kts 181°
2026-05-09 00:17 36.59785 104.31695 36390 ft 433 kts 181°
2026-05-09 00:17 36.53849 104.32964 36390 ft 433 kts 181°
2026-05-09 00:18 36.47970 104.34049 36389 ft 425 kts 187°
2026-05-09 00:18 36.42133 104.34192 36390 ft 420 kts 190°
2026-05-09 00:19 36.36300 104.34324 36390 ft 420 kts 189°
2026-05-09 00:19 36.30496 104.34443 36390 ft 420 kts 189°
2026-05-09 00:20 36.24678 104.34548 36390 ft 419 kts 189°
2026-05-09 00:20 36.18853 104.34650 36390 ft 419 kts 189°
2026-05-09 00:21 36.13048 104.34748 36391 ft 421 kts 189°
2026-05-09 00:21 36.07195 104.34849 36390 ft 421 kts 189°
2026-05-09 00:22 36.01382 104.34947 36390 ft 420 kts 189°
2026-05-09 00:22 35.95565 104.35044 36390 ft 420 kts 190°
2026-05-09 00:23 35.89749 104.35140 36391 ft 420 kts 189°
2026-05-09 00:23 35.83941 104.35237 36390 ft 421 kts 189°
2026-05-09 00:24 35.78091 104.35332 36389 ft 420 kts 190°
2026-05-09 00:24 35.72259 104.35424 36389 ft 420 kts 189°
2026-05-09 00:25 35.66454 104.35517 36390 ft 420 kts 190°
2026-05-09 00:25 35.60618 104.35609 36390 ft 420 kts 189°
2026-05-09 00:26 35.54822 104.35702 36391 ft 420 kts 189°
2026-05-09 00:26 35.48975 104.35793 36389 ft 421 kts 189°
2026-05-09 00:27 35.43133 104.35887 36390 ft 421 kts 189°
2026-05-09 00:27 35.37350 104.35982 36390 ft 419 kts 189°
2026-05-09 00:28 35.31524 104.36075 36390 ft 419 kts 189°
2026-05-09 00:28 35.25732 104.36165 36390 ft 420 kts 189°
2026-05-09 00:29 35.19886 104.36259 36389 ft 420 kts 189°
2026-05-09 00:29 35.14075 104.36352 36390 ft 420 kts 189°
2026-05-09 00:30 35.08243 104.36445 36390 ft 419 kts 190°
2026-05-09 00:30 35.02461 104.36536 36390 ft 420 kts 189°
2026-05-09 00:31 34.96621 104.36628 36390 ft 421 kts 189°
2026-05-09 00:31 34.90805 104.36720 36389 ft 421 kts 188°
2026-05-09 00:32 34.84937 104.36839 36391 ft 423 kts 188°
2026-05-09 00:32 34.79072 104.36962 36390 ft 421 kts 188°
2026-05-09 00:33 34.73274 104.37069 36389 ft 421 kts 188°
2026-05-09 00:33 34.67438 104.37157 36390 ft 422 kts 188°
2026-05-09 00:34 34.61573 104.37241 36390 ft 422 kts 188°
2026-05-09 00:34 34.55726 104.37342 36389 ft 421 kts 188°
2026-05-09 00:35 34.49877 104.37450 36391 ft 423 kts 188°
2026-05-09 00:35 34.44003 104.37509 36389 ft 422 kts 188°
2026-05-09 00:36 34.38186 104.37542 36390 ft 421 kts 188°
2026-05-09 00:36 34.32344 104.37603 36390 ft 422 kts 188°
2026-05-09 00:37 34.26499 104.37688 36392 ft 421 kts 188°
2026-05-09 00:37 34.20650 104.37767 36390 ft 420 kts 188°
2026-05-09 00:38 34.14837 104.37869 36390 ft 421 kts 188°
2026-05-09 00:38 34.08978 104.38017 36391 ft 423 kts 188°
2026-05-09 00:39 34.03152 104.38142 36390 ft 422 kts 188°
2026-05-09 00:39 33.97300 104.38236 36389 ft 422 kts 188°
2026-05-09 00:40 33.91439 104.38341 36391 ft 423 kts 188°
2026-05-09 00:40 33.85595 104.38437 36390 ft 421 kts 188°
2026-05-09 00:41 33.76858 104.38560 36390 ft 420 kts 188°
2026-05-09 00:41 33.71042 104.38643 36389 ft 421 kts 188°
2026-05-09 00:42 33.65223 104.38744 36388 ft 421 kts 187°
2026-05-09 00:42 33.59331 104.39718 36387 ft 445 kts 168°
2026-05-09 00:43 33.56530 104.41452 36392 ft 461 kts 157°
2026-05-09 00:43 33.53817 104.43506 36359 ft 463 kts 157°
2026-05-09 00:43 33.48348 104.47431 36336 ft 460 kts 159°
2026-05-09 00:44 33.42865 104.51312 36308 ft 460 kts 158°
2026-05-09 00:44 33.37181 104.54321 36309 ft 439 kts 174°
2026-05-09 00:45 33.34265 104.55023 36309 ft 428 kts 182°
2026-05-09 00:45 33.31327 104.55267 36312 ft 424 kts 186°
2026-05-09 00:45 33.25460 104.55582 36309 ft 425 kts 185°
2026-05-09 00:46 33.19575 104.56046 36310 ft 425 kts 185°
2026-05-09 00:46 33.13676 104.56471 36308 ft 425 kts 186°
2026-05-09 00:47 33.07832 104.56810 36309 ft 424 kts 186°
2026-05-09 00:47 33.01922 104.57128 36309 ft 427 kts 185°
2026-05-09 00:48 32.96000 104.57484 36307 ft 431 kts 184°
2026-05-09 00:48 32.90037 104.57846 36308 ft 432 kts 184°
2026-05-09 00:49 32.84053 104.58240 36309 ft 431 kts 184°
2026-05-09 00:49 32.78085 104.58707 36308 ft 431 kts 184°
2026-05-09 00:50 32.72149 104.59059 36309 ft 429 kts 185°
2026-05-09 00:50 32.66167 104.59242 36309 ft 431 kts 186°
2026-05-09 00:51 32.60238 104.59463 36308 ft 430 kts 185°
2026-05-09 00:51 32.54271 104.59711 36309 ft 428 kts 185°
2026-05-09 00:52 32.48342 104.59975 36308 ft 429 kts 185°
2026-05-09 00:52 32.42375 104.60240 36309 ft 430 kts 185°
2026-05-09 00:53 32.36436 104.60532 36310 ft 430 kts 185°
2026-05-09 00:53 32.30498 104.60847 36309 ft 429 kts 185°
2026-05-09 00:54 32.24533 104.61201 36312 ft 432 kts 184°
2026-05-09 00:54 32.18575 104.61619 36310 ft 431 kts 184°
2026-05-09 00:55 32.12590 104.61999 36310 ft 432 kts 184°
2026-05-09 00:55 32.06636 104.62373 36308 ft 431 kts 184°
2026-05-09 00:56 32.00681 104.62723 36310 ft 430 kts 184°
2026-05-09 00:56 31.94724 104.63032 36308 ft 431 kts 185°
2026-05-09 00:57 31.88768 104.63345 36309 ft 431 kts 185°
2026-05-09 00:57 31.82788 104.63672 36309 ft 431 kts 184°
2026-05-09 00:58 31.76813 104.64000 36309 ft 430 kts 185°
2026-05-09 00:58 31.70870 104.64237 36309 ft 428 kts 186°
2026-05-09 00:59 31.64930 104.64367 36311 ft 430 kts 186°
2026-05-09 00:59 31.58977 104.64501 36308 ft 429 kts 186°
2026-05-09 01:00 31.53042 104.64714 36309 ft 429 kts 185°
2026-05-09 01:00 31.47096 104.64954 36308 ft 430 kts 184°
2026-05-09 01:01 31.41119 104.65286 36310 ft 431 kts 185°
2026-05-09 01:01 31.35182 104.65565 36308 ft 430 kts 185°
2026-05-09 01:02 31.29202 104.65833 36308 ft 428 kts 186°
2026-05-09 01:02 31.23274 104.66086 36310 ft 429 kts 186°
2026-05-09 01:03 31.17343 104.66279 36308 ft 430 kts 186°
2026-05-09 01:03 31.11380 104.66456 36309 ft 429 kts 186°
2026-05-09 01:04 31.05432 104.66658 36310 ft 430 kts 185°
2026-05-09 01:04 30.99486 104.67227 36310 ft 435 kts 180°
2026-05-09 01:05 30.93489 104.68008 36310 ft 437 kts 180°
2026-05-09 01:06 30.84445 104.69101 36309 ft 437 kts 180°
2026-05-09 01:06 30.78426 104.69758 36309 ft 436 kts 180°
2026-05-09 01:07 30.72395 104.70356 36309 ft 437 kts 180°
2026-05-09 01:07 30.66345 104.71023 36308 ft 438 kts 180°
2026-05-09 01:08 30.60300 104.71684 36308 ft 436 kts 180°
2026-05-09 01:08 30.54304 104.72340 36308 ft 438 kts 180°
2026-05-09 01:09 30.48245 104.73016 36309 ft 437 kts 180°
2026-05-09 01:09 30.42240 104.73682 36309 ft 437 kts 180°
2026-05-09 01:10 30.36213 104.74339 36309 ft 438 kts 179°
2026-05-09 01:10 30.30154 104.75067 36308 ft 438 kts 179°
2026-05-09 01:11 30.24127 104.75796 36309 ft 437 kts 179°
2026-05-09 01:11 30.18083 104.76490 36309 ft 437 kts 180°
2026-05-09 01:12 30.12060 104.77173 36310 ft 438 kts 179°
2026-05-09 01:12 30.06000 104.77851 36309 ft 437 kts 180°
2026-05-09 01:13 30.00012 104.78822 36306 ft 444 kts 169°
2026-05-09 01:13 29.94225 104.81441 36309 ft 450 kts 162°
2026-05-09 01:14 29.88437 104.84175 36308 ft 448 kts 163°
2026-05-09 01:14 29.82700 104.86867 36310 ft 449 kts 162°
2026-05-09 01:15 29.76963 104.89632 36308 ft 450 kts 162°
2026-05-09 01:15 29.71223 104.92412 36309 ft 449 kts 162°
2026-05-09 01:16 29.65449 104.95168 36309 ft 449 kts 162°
2026-05-09 01:16 29.59688 104.97888 36308 ft 450 kts 162°
2026-05-09 01:17 29.51049 105.01994 36309 ft 450 kts 162°
2026-05-09 01:17 29.45212 105.04432 36309 ft 447 kts 167°
2026-05-09 01:18 29.39325 105.06612 36308 ft 448 kts 166°
2026-05-09 01:18 29.33443 105.08890 36309 ft 448 kts 166°
2026-05-09 01:19 29.27559 105.11150 36309 ft 448 kts 166°
2026-05-09 01:19 29.21660 105.13380 36309 ft 448 kts 166°
2026-05-09 01:20 29.15760 105.15627 36309 ft 448 kts 166°
2026-05-09 01:20 29.09867 105.17864 36309 ft 448 kts 166°
2026-05-09 01:21 29.03970 105.20104 36310 ft 451 kts 166°
2026-05-09 01:21 28.98019 105.22373 36309 ft 456 kts 166°
2026-05-09 01:22 28.91980 105.24676 36310 ft 458 kts 166°
2026-05-09 01:22 28.85979 105.26989 36308 ft 456 kts 165°
2026-05-09 01:23 28.79986 105.29284 36309 ft 456 kts 165°
2026-05-09 01:23 28.73998 105.31567 36309 ft 456 kts 166°
2026-05-09 01:24 28.68003 105.33825 36308 ft 456 kts 166°
2026-05-09 01:24 28.61998 105.36070 36309 ft 455 kts 166°
2026-05-09 01:25 28.56036 105.38315 36310 ft 456 kts 166°
2026-05-09 01:25 28.50018 105.40584 36308 ft 456 kts 166°
2026-05-09 01:26 28.44050 105.42820 36309 ft 456 kts 166°
2026-05-09 01:26 28.38038 105.45104 36309 ft 456 kts 165°
2026-05-09 01:27 28.32043 105.47397 36309 ft 456 kts 166°
2026-05-09 01:27 28.26054 105.49659 36309 ft 456 kts 166°
2026-05-09 01:28 28.20083 105.51884 36308 ft 456 kts 166°
2026-05-09 01:28 28.14076 105.54108 36313 ft 456 kts 166°
2026-05-09 01:29 28.08053 105.56341 36332 ft 454 kts 167°
2026-05-09 01:29 28.01969 105.57821 36354 ft 448 kts 176°
2026-05-09 01:30 27.95797 105.58774 36363 ft 451 kts 176°
2026-05-09 01:30 27.89620 105.59779 36364 ft 450 kts 176°
2026-05-09 01:31 27.83417 105.60801 36360 ft 451 kts 172°
2026-05-09 01:31 27.77506 105.63171 36361 ft 460 kts 159°
2026-05-09 01:32 27.71830 105.66492 36361 ft 461 kts 156°
2026-05-09 01:32 27.66178 105.69837 36363 ft 460 kts 158°
2026-05-09 01:33 27.60395 105.72862 36363 ft 460 kts 159°
2026-05-09 01:33 27.54627 105.75924 36362 ft 459 kts 159°
2026-05-09 01:34 27.48880 105.79023 36363 ft 459 kts 159°
2026-05-09 01:34 27.43110 105.82108 36362 ft 460 kts 159°
2026-05-09 01:35 27.37383 105.85162 36363 ft 459 kts 159°
2026-05-09 01:35 27.31607 105.88282 36364 ft 460 kts 158°
2026-05-09 01:36 27.25872 105.91385 36362 ft 460 kts 158°
2026-05-09 01:36 27.20134 105.94463 36362 ft 459 kts 159°
2026-05-09 01:37 27.14468 105.97465 36363 ft 460 kts 159°
2026-05-09 01:37 27.08702 106.00531 36363 ft 460 kts 159°
2026-05-09 01:38 27.02791 106.03078 36363 ft 452 kts 171°
2026-05-09 01:38 26.96654 106.04288 36363 ft 452 kts 174°
2026-05-09 01:39 26.90453 106.05505 36363 ft 454 kts 173°
2026-05-09 01:39 26.84230 106.06709 36363 ft 455 kts 174°
2026-05-09 01:40 26.78060 106.07879 36363 ft 454 kts 174°
2026-05-09 01:40 26.71843 106.09052 36363 ft 454 kts 174°
2026-05-09 01:41 26.65614 106.10221 36363 ft 454 kts 174°
2026-05-09 01:41 26.59450 106.11375 36363 ft 454 kts 174°
2026-05-09 01:42 26.53233 106.12536 36363 ft 454 kts 174°
2026-05-09 01:42 26.47037 106.13692 36363 ft 454 kts 174°
2026-05-09 01:43 26.40803 106.14852 36363 ft 454 kts 174°
2026-05-09 01:43 26.34614 106.16003 36363 ft 454 kts 174°
2026-05-09 01:44 26.28396 106.17162 36363 ft 454 kts 174°
2026-05-09 01:44 26.22195 106.18317 36363 ft 454 kts 174°
2026-05-09 01:45 26.16005 106.19469 36363 ft 454 kts 174°
2026-05-09 01:45 26.09796 106.20623 36363 ft 454 kts 174°
2026-05-09 01:46 26.03565 106.21780 36363 ft 454 kts 174°
2026-05-09 01:46 25.97360 106.22931 36363 ft 454 kts 174°
2026-05-09 01:47 25.91165 106.24079 36363 ft 453 kts 174°
2026-05-09 01:47 25.84987 106.25222 36363 ft 453 kts 174°
2026-05-09 01:48 25.78802 106.26365 36363 ft 453 kts 174°
2026-05-09 01:48 25.72574 106.27515 36363 ft 453 kts 174°
2026-05-09 01:49 25.66375 106.28658 36363 ft 453 kts 174°
2026-05-09 01:49 25.60190 106.29798 36363 ft 453 kts 174°
2026-05-09 01:50 25.53999 106.30938 36363 ft 453 kts 174°
2026-05-09 01:50 25.47767 106.32084 36363 ft 453 kts 174°
2026-05-09 01:51 25.41595 106.33218 36363 ft 453 kts 174°
2026-05-09 01:51 25.35372 106.34360 36363 ft 453 kts 174°
2026-05-09 01:52 25.29207 106.35490 36363 ft 453 kts 174°
2026-05-09 01:52 25.22979 106.36631 36363 ft 453 kts 174°
2026-05-09 01:53 25.16793 106.37762 36363 ft 453 kts 174°
2026-05-09 01:53 25.10586 106.38896 36363 ft 453 kts 174°
2026-05-09 01:54 25.04385 106.40028 36363 ft 453 kts 173°
2026-05-09 01:54 24.98215 106.41153 36363 ft 452 kts 172°
2026-05-09 01:55 24.92052 106.42269 36363 ft 451 kts 172°
2026-05-09 01:55 24.85891 106.43382 36363 ft 451 kts 172°
2026-05-09 01:56 24.79700 106.44500 36363 ft 451 kts 172°
2026-05-09 01:56 24.73512 106.45617 36363 ft 451 kts 172°
2026-05-09 01:57 24.67360 106.46726 36363 ft 451 kts 172°
2026-05-09 01:57 24.61200 106.47835 36363 ft 451 kts 172°
2026-05-09 01:58 24.55028 106.48946 36363 ft 451 kts 172°
2026-05-09 01:58 24.48867 106.50054 36363 ft 451 kts 172°
2026-05-09 01:59 24.42678 106.51166 36363 ft 451 kts 172°
2026-05-09 01:59 24.36498 106.52275 36363 ft 451 kts 172°
2026-05-09 02:00 24.30349 106.53377 36357 ft 451 kts 172°
2026-05-09 02:00 24.24189 106.54481 36294 ft 452 kts 172°
2026-05-09 02:01 24.17997 106.55544 36229 ft 451 kts 175°
2026-05-09 02:01 24.11826 106.55211 36201 ft 446 kts 195°
2026-05-09 02:02 24.06129 106.52608 36200 ft 444 kts 213°
2026-05-09 02:02 24.03692 106.50624 36199 ft 442 kts 224°
2026-05-09 02:02 24.01656 106.48107 36205 ft 441 kts 234°
2026-05-09 02:03 23.98641 106.42341 36195 ft 438 kts 253°
2026-05-09 02:03 23.98064 106.39112 36211 ft 437 kts 264°
2026-05-09 02:03 23.97797 106.35813 36199 ft 437 kts 268°
2026-05-09 02:04 23.98476 106.29250 36203 ft 437 kts 284°
2026-05-09 02:04 23.99886 106.22817 36201 ft 437 kts 282°
2026-05-09 02:05 24.01177 106.16340 36206 ft 436 kts 282°
2026-05-09 02:05 24.02481 106.09875 36221 ft 436 kts 282°
2026-05-09 02:06 24.03777 106.03406 36256 ft 436 kts 282°
2026-05-09 02:07 24.05717 105.93684 36316 ft 437 kts 282°
2026-05-09 02:07 24.07000 105.87232 36346 ft 437 kts 282°
2026-05-09 02:08 24.08285 105.80755 36353 ft 437 kts 282°
2026-05-09 02:08 24.09569 105.74263 36334 ft 437 kts 282°
2026-05-09 02:09 24.10888 105.67808 36323 ft 436 kts 284°
2026-05-09 02:09 24.12496 105.61411 36323 ft 436 kts 285°
2026-05-09 02:10 24.14071 105.55007 36355 ft 436 kts 285°
2026-05-09 02:10 24.15612 105.48631 36393 ft 436 kts 283°
2026-05-09 02:11 24.16144 105.42033 36420 ft 437 kts 264°
2026-05-09 02:11 24.14631 105.35651 36441 ft 439 kts 249°
2026-05-09 02:11 24.13227 105.32693 36439 ft 440 kts 235°
2026-05-09 02:12 24.11185 105.30151 36454 ft 442 kts 225°
2026-05-09 02:12 24.06424 105.25974 36437 ft 444 kts 209°
2026-05-09 02:12 24.03517 105.24801 36448 ft 447 kts 192°
2026-05-09 02:13 24.00497 105.24261 36445 ft 448 kts 189°
2026-05-09 02:13 23.94284 105.24072 36408 ft 451 kts 176°
2026-05-09 02:14 23.88065 105.24695 36347 ft 450 kts 176°
2026-05-09 02:14 23.81835 105.25204 36294 ft 449 kts 176°
2026-05-09 02:15 23.75626 105.25739 36243 ft 450 kts 176°
2026-05-09 02:15 23.69412 105.26276 36192 ft 450 kts 176°
2026-05-09 02:16 23.63190 105.26814 36173 ft 449 kts 176°
2026-05-09 02:16 23.56981 105.27351 36174 ft 450 kts 176°
2026-05-09 02:17 23.50773 105.27889 36174 ft 450 kts 176°
2026-05-09 02:17 23.44575 105.28425 36174 ft 450 kts 176°
2026-05-09 02:18 23.38359 105.28963 36174 ft 450 kts 176°
2026-05-09 02:18 23.32139 105.29475 36174 ft 450 kts 177°
2026-05-09 02:19 23.25897 105.29929 36174 ft 450 kts 177°
2026-05-09 02:19 23.19704 105.30390 36174 ft 450 kts 177°
2026-05-09 02:20 23.13469 105.30855 36174 ft 450 kts 177°
2026-05-09 02:20 23.07277 105.31542 36174 ft 451 kts 172°
2026-05-09 02:21 23.01121 105.32631 36174 ft 450 kts 172°
2026-05-09 02:21 22.94954 105.33629 36173 ft 446 kts 172°
2026-05-09 02:22 22.88860 105.34616 36174 ft 444 kts 172°
2026-05-09 02:22 22.85820 105.35106 35966 ft 441 kts 172°
2026-05-09 02:22 22.82812 105.35589 35295 ft 440 kts 172°
2026-05-09 02:22 22.79835 105.36066 34564 ft 440 kts 172°
2026-05-09 02:23 22.76810 105.36551 33788 ft 441 kts 172°
2026-05-09 02:23 22.73784 105.37035 32995 ft 442 kts 172°
2026-05-09 02:23 22.70787 105.37514 32423 ft 437 kts 172°
2026-05-09 02:23 22.67813 105.37989 31842 ft 433 kts 172°
2026-05-09 02:24 22.64836 105.38464 31254 ft 429 kts 172°
2026-05-09 02:24 22.61947 105.38925 30680 ft 425 kts 172°
2026-05-09 02:24 22.59026 105.39391 30098 ft 421 kts 172°
2026-05-09 02:24 22.56150 105.39848 29520 ft 417 kts 172°
2026-05-09 02:25 22.53323 105.40299 28951 ft 413 kts 172°
2026-05-09 02:25 22.50513 105.40746 28383 ft 409 kts 172°
2026-05-09 02:25 22.47697 105.41194 27811 ft 406 kts 172°
2026-05-09 02:25 22.44956 105.41630 27253 ft 402 kts 172°
2026-05-09 02:26 22.42216 105.42065 26692 ft 399 kts 172°
2026-05-09 02:26 22.39497 105.42497 26135 ft 395 kts 172°
2026-05-09 02:26 22.36796 105.42926 25579 ft 392 kts 172°
2026-05-09 02:26 22.34107 105.43353 25024 ft 388 kts 172°
2026-05-09 02:27 22.31475 105.43771 24479 ft 385 kts 171°
2026-05-09 02:27 22.28858 105.44186 23936 ft 381 kts 171°
2026-05-09 02:27 22.26243 105.44601 23391 ft 378 kts 171°
2026-05-09 02:27 22.23692 105.45005 22858 ft 375 kts 171°
2026-05-09 02:28 22.21102 105.45416 22316 ft 372 kts 171°
2026-05-09 02:28 22.18588 105.45814 21788 ft 368 kts 171°
2026-05-09 02:28 22.16065 105.46213 21258 ft 365 kts 171°
2026-05-09 02:28 22.13592 105.46604 20735 ft 362 kts 171°
2026-05-09 02:29 22.11125 105.46995 20207 ft 359 kts 171°
2026-05-09 02:29 22.08648 105.47387 19631 ft 358 kts 171°
2026-05-09 02:29 22.06204 105.47774 19105 ft 355 kts 171°
2026-05-09 02:29 22.03789 105.48155 18625 ft 351 kts 171°
2026-05-09 02:30 22.01397 105.48534 18121 ft 348 kts 171°
2026-05-09 02:30 21.99021 105.48909 17616 ft 345 kts 171°
2026-05-09 02:30 21.96676 105.49280 17115 ft 342 kts 171°
2026-05-09 02:30 21.94329 105.49651 16611 ft 342 kts 171°
2026-05-09 02:31 21.91960 105.50024 16103 ft 344 kts 171°
2026-05-09 02:31 21.89612 105.50395 15591 ft 341 kts 171°
2026-05-09 02:31 21.87279 105.50763 15086 ft 338 kts 171°
2026-05-09 02:31 21.84991 105.51225 14583 ft 335 kts 162°
2026-05-09 02:32 21.82943 105.52286 14139 ft 329 kts 142°
2026-05-09 02:32 21.81343 105.54037 14101 ft 329 kts 126°
2026-05-09 02:32 21.80169 105.56162 14079 ft 332 kts 115°
2026-05-09 02:32 21.79189 105.58380 13945 ft 328 kts 115°
2026-05-09 02:33 21.78187 105.60569 13579 ft 322 kts 116°
2026-05-09 02:33 21.77191 105.62720 13124 ft 328 kts 116°
2026-05-09 02:33 21.76185 105.64915 12630 ft 325 kts 115°
2026-05-09 02:33 21.75202 105.67062 12267 ft 318 kts 116°
2026-05-09 02:34 21.74320 105.69196 12082 ft 305 kts 106°
2026-05-09 02:34 21.74084 105.71383 12078 ft 292 kts 86°
2026-05-09 02:34 21.74318 105.73575 12074 ft 294 kts 83°
2026-05-09 02:34 21.74532 105.75740 12073 ft 295 kts 84°
2026-05-09 02:35 21.74729 105.77934 12074 ft 296 kts 84°
2026-05-09 02:35 21.74940 105.80149 12074 ft 295 kts 84°
2026-05-09 02:35 21.75150 105.82352 12074 ft 295 kts 84°
2026-05-09 02:35 21.75348 105.84544 12072 ft 295 kts 87°
2026-05-09 02:36 21.75151 105.86731 12077 ft 295 kts 105°
2026-05-09 02:36 21.74522 105.88831 12072 ft 296 kts 108°
2026-05-09 02:36 21.73904 105.90945 12073 ft 296 kts 106°
2026-05-09 02:36 21.73312 105.93044 12073 ft 296 kts 107°
2026-05-09 02:37 21.72703 105.95163 12073 ft 296 kts 107°
2026-05-09 02:37 21.72092 105.97281 12074 ft 296 kts 107°
2026-05-09 02:37 21.71482 105.99393 12074 ft 296 kts 108°
2026-05-09 02:37 21.70614 106.01366 12072 ft 296 kts 125°
2026-05-09 02:38 21.69295 106.03062 12076 ft 297 kts 131°
2026-05-09 02:38 21.67939 106.04743 12074 ft 297 kts 129°
2026-05-09 02:38 21.66607 106.06448 12073 ft 297 kts 129°
2026-05-09 02:38 21.65205 106.08075 12068 ft 298 kts 140°
2026-05-09 02:39 21.63507 106.09121 12074 ft 299 kts 161°
2026-05-09 02:39 21.61435 106.09400 12077 ft 302 kts 183°
2026-05-09 02:39 21.59389 106.08880 12072 ft 305 kts 204°
2026-05-09 02:39 21.57690 106.07575 11985 ft 300 kts 227°
2026-05-09 02:40 21.56424 106.05808 11698 ft 300 kts 233°
2026-05-09 02:40 21.55164 106.04028 11308 ft 304 kts 231°
2026-05-09 02:40 21.53869 106.02253 10910 ft 301 kts 231°
2026-05-09 02:40 21.52588 106.00474 10511 ft 299 kts 231°
2026-05-09 02:41 21.51328 105.98717 10252 ft 292 kts 231°
2026-05-09 02:41 21.50127 105.97044 10097 ft 282 kts 231°
2026-05-09 02:41 21.48906 105.95406 9716 ft 281 kts 230°
2026-05-09 02:41 21.47667 105.93803 9350 ft 280 kts 230°
2026-05-09 02:42 21.46428 105.92187 9006 ft 278 kts 230°
2026-05-09 02:42 21.45220 105.90608 8676 ft 275 kts 230°
2026-05-09 02:42 21.44007 105.89025 8345 ft 273 kts 230°
2026-05-09 02:42 21.42814 105.87467 8020 ft 271 kts 230°
2026-05-09 02:43 21.41624 105.85915 7694 ft 268 kts 230°
2026-05-09 02:43 21.40440 105.84369 7370 ft 266 kts 230°
2026-05-09 02:43 21.39280 105.82856 7070 ft 264 kts 231°
2026-05-09 02:43 21.38386 105.81186 6994 ft 254 kts 255°
2026-05-09 02:44 21.38175 105.79317 7003 ft 254 kts 266°
2026-05-09 02:44 21.38021 105.77430 6994 ft 254 kts 264°
2026-05-09 02:44 21.37842 105.75548 6993 ft 254 kts 265°
2026-05-09 02:44 21.37670 105.73650 6992 ft 254 kts 265°
2026-05-09 02:45 21.37500 105.71767 6992 ft 254 kts 265°
2026-05-09 02:45 21.37328 105.69869 6992 ft 254 kts 265°
2026-05-09 02:45 21.37159 105.67997 6991 ft 252 kts 265°
2026-05-09 02:45 21.36994 105.66169 6992 ft 244 kts 265°
2026-05-09 02:46 21.37047 105.64367 6992 ft 241 kts 286°
2026-05-09 02:46 21.37566 105.62643 6993 ft 242 kts 289°
2026-05-09 02:46 21.38069 105.60938 6993 ft 242 kts 288°
2026-05-09 02:46 21.38569 105.59197 6993 ft 242 kts 288°
2026-05-09 02:47 21.39062 105.57488 6993 ft 242 kts 288°
2026-05-09 02:47 21.39560 105.55759 6993 ft 242 kts 288°
2026-05-09 02:47 21.40054 105.54041 6993 ft 242 kts 288°
2026-05-09 02:47 21.40550 105.52317 6993 ft 242 kts 288°
2026-05-09 02:48 21.41044 105.50597 6993 ft 242 kts 288°
2026-05-09 02:48 21.41543 105.48858 6993 ft 242 kts 288°
2026-05-09 02:48 21.42038 105.47137 6993 ft 242 kts 288°
2026-05-09 02:48 21.42533 105.45412 6993 ft 242 kts 288°
2026-05-09 02:49 21.43027 105.43689 6993 ft 242 kts 288°
2026-05-09 02:49 21.43521 105.41966 6993 ft 242 kts 288°
2026-05-09 02:49 21.44014 105.40248 6993 ft 242 kts 288°
2026-05-09 02:49 21.44513 105.38509 6993 ft 242 kts 288°
2026-05-09 02:50 21.44961 105.36782 6988 ft 242 kts 279°
2026-05-09 02:50 21.44772 105.35010 6999 ft 239 kts 244°
2026-05-09 02:50 21.43701 105.33781 6998 ft 216 kts 205°
2026-05-09 02:50 21.42363 105.33252 6992 ft 205 kts 195°
2026-05-09 02:51 21.40998 105.32782 6991 ft 207 kts 196°
2026-05-09 02:51 21.39619 105.32318 6992 ft 207 kts 195°
2026-05-09 02:51 21.38237 105.31867 6992 ft 207 kts 193°
2026-05-09 02:51 21.36845 105.31793 6986 ft 202 kts 160°
2026-05-09 02:52 21.35764 105.32684 6998 ft 199 kts 116°
2026-05-09 02:52 21.35330 105.34091 7000 ft 199 kts 103°
2026-05-09 02:52 21.34906 105.35505 6885 ft 199 kts 108°
2026-05-09 02:52 21.34477 105.36910 6728 ft 197 kts 106°
2026-05-09 02:53 21.34073 105.38305 6536 ft 197 kts 106°
2026-05-09 02:53 21.33668 105.39707 6325 ft 196 kts 105°
2026-05-09 02:53 21.33274 105.41080 6127 ft 186 kts 105°
2026-05-09 02:53 21.32900 105.42384 5912 ft 182 kts 105°
2026-05-09 02:54 21.32531 105.43675 5714 ft 182 kts 105°
2026-05-09 02:54 21.32139 105.44968 5514 ft 182 kts 107°
2026-05-09 02:54 21.31827 105.46287 5315 ft 182 kts 102°
2026-05-09 02:54 21.31517 105.47611 5113 ft 181 kts 102°
2026-05-09 02:55 21.31216 105.48908 4917 ft 181 kts 103°
2026-05-09 02:55 21.30872 105.50215 4717 ft 180 kts 104°
2026-05-09 02:55 21.30518 105.51490 4521 ft 180 kts 105°
2026-05-09 02:55 21.30152 105.52781 4321 ft 180 kts 105°
2026-05-09 02:56 21.29787 105.54060 4124 ft 179 kts 105°
2026-05-09 02:56 21.29422 105.55331 3928 ft 179 kts 105°
2026-05-09 02:56 21.29057 105.56602 3730 ft 178 kts 105°
2026-05-09 02:56 21.28693 105.57869 3533 ft 178 kts 105°
2026-05-09 02:57 21.28329 105.59136 3337 ft 177 kts 105°
2026-05-09 02:57 21.27969 105.60387 3143 ft 177 kts 105°
2026-05-09 02:57 21.27601 105.61667 2776 ft 181 kts 105°
2026-05-09 02:57 21.27237 105.62930 2404 ft 176 kts 105°
2026-05-09 02:58 21.26884 105.64155 2327 ft 171 kts 105°
2026-05-09 02:58 21.26531 105.65382 2190 ft 175 kts 105°
2026-05-09 02:58 21.26173 105.66632 2056 ft 174 kts 105°
2026-05-09 02:58 21.25816 105.67870 1923 ft 174 kts 105°
2026-05-09 02:59 21.25458 105.69111 1788 ft 174 kts 105°
2026-05-09 02:59 21.25103 105.70343 1656 ft 171 kts 105°
2026-05-09 02:59 21.24767 105.71505 1510 ft 156 kts 105°
2026-05-09 02:59 21.24452 105.72597 1339 ft 153 kts 105°
2026-05-09 03:00 21.24135 105.73697 1139 ft 155 kts 105°
2026-05-09 03:00 21.23817 105.74794 917 ft 155 kts 105°
2026-05-09 03:00 21.23503 105.75890 716 ft 153 kts 105°
2026-05-09 03:00 21.23192 105.76977 501 ft 153 kts 104°
2026-05-09 03:01 21.22876 105.78064 286 ft 152 kts 106°
2026-05-09 03:01 21.22556 105.79154 68 ft 153 kts 105°
2026-05-09 03:01 21.22284 105.80122 49 ft 109 kts 104°
2026-05-09 03:01 21.22117 105.80673 48 ft 52 kts 108°
2026-05-09 03:02 21.22041 105.80978 48 ft 38 kts 102°
2026-05-09 03:02 21.21970 105.81085 48 ft 10 kts 205°
2026-05-09 03:02 21.21942 105.81019 48 ft 10 kts 258°
2026-05-09 03:02 21.21925 105.80933 48 ft 13 kts 258°
2026-05-09 03:03 21.21904 105.80826 48 ft 15 kts 258°
2026-05-09 03:03 21.21844 105.80725 48 ft 18 kts 200°
2026-05-09 03:03 21.21729 105.80664 48 ft 20 kts 248°
2026-05-09 03:03 21.21761 105.80477 48 ft 33 kts 288°
2026-05-09 03:04 21.21851 105.80183 48 ft 47 kts 288°
2026-05-09 03:04 21.21944 105.79848 48 ft 44 kts 288°
2026-05-09 03:04 21.22030 105.79555 48 ft 37 kts 288°
2026-05-09 03:04 21.22102 105.79308 48 ft 32 kts 288°
2026-05-09 03:05 21.22099 105.79125 48 ft 14 kts 214°
2026-05-09 03:05 21.22081 105.79050 48 ft 11 kts 263°
2026-05-09 03:05 21.22020 105.79009 48 ft 8 kts 200°
2026-05-09 03:05 21.21978 105.78996 48 ft 0 kts 197°
2026-05-09 03:06 21.21977 105.78996 48 ft 0 kts 197°